Theta_e
351 351 351 350 348 346 344 343 342 341 341 340 339 338 338 338 338 338 338 338 339 339 340 341 341 342 343 341 339 340 342 343 344 344 343 343 345 347 348 348 348 348 349 349 349 349 351 351 350 348 348 347 345 344 344 345 346 345 343 343 344 344 343 341 339 335 332 333 333 335 336 336 336 334 334 339 340 337 336 336 336 335 334 334 334
351 352 352 351 350 349 347 346 346 345 343 342 341 340 339 339 339 339 339 339 339 339 340 340 341 341 342 342 340 341 342 343 344 344 342 342 344 345 346 347 347 347 348 349 349 350 350 350 350 350 350 349 347 345 344 345 345 345 343 341 342 342 342 340 336 333 332 332 331 331 334 335 335 334 335 339 339 337 336 336 335 334 333 332 332
351 351 352 352 351 350 349 348 348 346 346 345 344 343 342 341 340 339 339 339 338 339 339 340 340 340 341 341 341 342 342 343 344 344 343 342 342 343 344 345 345 345 347 348 349 349 350 350 350 351 351 350 349 347 345 345 345 344 343 341 340 341 340 337 335 334 332 330 331 332 332 333 334 335 336 338 338 337 338 337 335 334 331 330 330
351 351 351 352 352 352 351 350 348 347 347 346 345 345 344 342 341 340 340 339 339 339 339 340 339 340 341 341 342 343 343 344 345 345 345 344 342 342 342 343 343 344 345 347 349 349 350 350 350 350 351 350 349 347 346 346 346 345 343 341 339 337 336 335 334 333 331 330 331 333 332 333 334 336 337 338 338 338 339 338 336 333 331 328 328
351 351 351 351 351 352 351 350 348 347 345 344 344 344 343 343 342 341 340 340 340 339 339 340 340 341 341 342 343 344 345 345 345 345 345 344 343 342 343 342 343 343 344 346 348 349 349 350 350 351 351 350 348 346 346 346 346 344 343 340 337 334 332 331 332 333 331 330 330 333 334 335 336 337 337 338 338 338 339 338 336 332 329 328 327
350 350 350 351 351 351 351 350 349 347 344 343 343 344 344 344 344 343 342 341 340 340 340 340 340 341 341 341 342 343 344 343 343 343 343 343 342 342 343 342 342 343 343 345 347 348 349 350 351 351 351 350 348 346 346 346 345 344 342 339 336 332 329 328 331 332 331 328 327 330 335 337 337 337 337 337 337 337 338 337 335 330 328 328 327
350 350 350 351 350 351 350 350 349 346 343 341 343 345 345 346 347 347 347 345 343 341 340 340 340 340 341 341 341 341 340 340 341 341 341 341 341 342 342 342 343 342 343 344 346 348 349 350 351 351 351 350 349 347 346 345 345 342 341 339 334 329 327 325 328 332 331 328 326 327 333 337 337 337 336 336 336 337 337 336 333 329 328 328 327
350 350 350 350 350 350 349 347 346 342 341 341 343 344 345 346 347 348 349 348 348 345 343 341 341 341 341 341 341 340 339 338 339 340 341 341 341 341 341 342 342 343 343 344 345 347 349 350 350 351 350 350 349 348 347 345 343 341 339 337 331 326 324 322 327 332 331 329 326 326 331 335 337 337 336 336 336 337 336 334 332 329 328 329 328
350 349 350 350 350 350 347 345 342 339 340 341 340 341 343 345 346 347 348 349 349 349 347 344 342 341 341 341 341 340 339 339 339 340 340 340 341 341 341 342 342 343 343 344 345 346 348 349 349 349 349 349 348 348 347 345 341 338 337 334 327 324 323 322 326 332 333 330 328 327 330 333 336 337 336 336 336 335 335 334 332 330 329 330 329
349 349 349 349 349 348 346 345 342 340 342 341 339 340 342 344 346 346 346 347 349 349 348 348 345 344 342 341 339 339 339 340 340 340 340 340 340 340 341 341 342 343 343 344 344 345 346 346 346 347 347 348 348 347 347 345 340 336 334 330 325 323 323 322 325 330 331 331 330 329 329 332 335 337 336 336 335 334 334 334 332 331 331 331 330
348 349 349 348 348 347 346 347 345 344 344 345 344 344 344 345 346 346 346 346 348 348 348 348 348 347 345 342 340 338 338 339 340 339 339 339 339 339 340 340 341 342 342 342 342 343 344 344 344 345 346 347 347 347 347 344 339 336 334 330 325 322 321 321 323 326 329 330 330 329 329 330 333 336 335 335 334 334 334 334 333 332 331 331 331
347 348 348 348 348 348 348 348 347 346 347 347 347 348 347 347 347 347 346 346 347 348 348 347 348 348 348 346 343 340 339 338 338 338 338 339 338 338 338 339 340 340 340 339 340 341 342 342 343 344 345 346 346 346 346 342 338 336 335 333 327 323 320 319 320 324 327 329 328 328 329 330 332 334 334 333 332 334 335 335 334 333 332 332 332
347 347 348 348 347 348 348 347 347 347 347 347 347 348 348 348 348 347 347 346 347 347 347 347 347 347 348 348 346 343 341 339 338 338 338 337 337 337 337 337 338 338 338 337 337 340 341 341 342 343 343 344 344 345 344 340 337 336 336 334 329 324 321 319 318 321 325 327 328 329 329 330 331 332 333 332 331 332 333 334 333 333 332 332 332
346 346 347 348 347 347 347 346 346 346 346 346 346 347 347 347 347 347 347 346 346 347 348 348 348 347 347 348 347 346 344 341 339 338 338 337 336 336 336 336 336 336 336 336 337 339 340 341 342 342 343 343 343 344 342 339 337 336 336 334 329 324 323 322 320 320 321 323 326 328 328 329 330 332 332 331 331 331 331 331 332 332 332 332 331
345 345 346 346 347 346 346 346 345 345 344 345 346 346 346 346 347 347 347 346 346 347 347 347 348 347 347 347 348 348 346 344 342 340 339 338 336 336 336 335 336 336 335 335 335 338 340 341 342 342 343 343 342 342 341 338 337 336 335 333 327 323 322 322 321 321 320 320 322 324 325 327 330 332 331 330 330 331 332 332 331 331 331 331 331
343 345 345 345 346 346 346 345 345 345 344 345 345 345 346 345 345 345 345 345 346 346 346 346 346 347 347 348 348 348 348 347 345 344 341 339 337 336 335 335 335 335 335 334 335 338 340 341 342 342 342 342 341 340 340 338 336 336 335 331 325 321 321 321 320 320 320 319 320 321 322 323 328 331 330 329 329 330 332 332 332 331 331 331 331
342 343 343 344 345 345 346 346 345 345 344 345 344 344 344 343 344 344 344 345 346 345 346 345 346 346 347 348 348 348 348 347 347 346 344 342 339 337 335 335 335 335 335 335 335 338 340 341 342 342 342 341 339 338 338 338 336 336 336 331 324 320 320 320 319 319 318 319 320 320 320 320 324 328 329 328 328 330 331 332 332 331 331 331 331
340 342 342 343 344 344 345 345 344 344 344 343 343 343 344 344 344 344 344 345 345 345 346 346 346 347 347 348 348 348 348 348 347 347 346 345 343 341 338 335 334 334 334 335 336 338 340 341 342 342 341 341 339 338 337 337 336 336 336 334 328 323 320 320 320 319 318 319 319 320 320 320 321 325 328 327 327 329 331 331 332 332 331 331 331
338 340 341 342 342 343 344 344 344 344 343 343 343 343 344 344 344 344 344 343 344 344 345 346 346 346 346 347 347 348 348 348 348 347 347 347 346 344 341 337 333 333 334 335 337 339 340 341 342 342 342 341 340 338 337 336 336 335 336 336 334 328 323 320 320 320 320 320 319 319 320 321 321 322 325 326 326 328 331 331 332 332 332 332 331
337 338 339 340 341 342 343 342 343 343 343 343 343 344 344 344 344 344 344 344 345 346 345 345 346 345 346 347 347 348 348 348 348 348 348 347 347 346 344 341 336 333 333 333 335 338 339 341 341 342 342 343 342 340 337 335 335 336 336 336 337 334 330 325 322 321 321 321 320 319 319 320 321 321 322 324 324 326 329 331 333 333 332 332 332
338 338 338 339 340 341 341 341 342 342 343 343 343 344 344 344 344 344 344 345 346 346 345 345 346 346 347 347 348 348 349 349 349 348 348 348 347 347 346 345 342 336 333 333 334 336 338 340 341 342 342 343 343 341 338 336 335 335 336 336 337 337 335 332 328 324 322 322 321 320 319 319 320 320 321 321 323 324 325 328 330 332 333 333 333
339 339 338 338 338 340 340 341 342 342 343 343 343 343 343 344 344 344 344 345 345 345 345 345 346 346 347 347 348 349 348 349 349 348 349 348 348 348 347 347 345 340 335 333 333 334 336 339 340 341 342 342 343 342 340 338 336 335 335 336 337 337 336 336 333 328 325 323 323 321 320 320 320 319 320 320 320 321 322 323 326 329 331 331 332
340 339 339 339 338 339 340 340 341 341 342 343 343 343 344 343 344 344 345 345 345 345 345 346 346 346 347 347 348 348 348 349 349 348 349 349 349 348 348 347 346 343 338 333 333 334 335 337 339 341 342 342 343 342 341 340 338 337 336 335 337 337 337 337 334 331 329 328 326 323 321 321 320 319 319 319 319 320 321 321 323 325 327 328 329
339 339 340 339 338 339 339 339 341 341 342 343 343 343 343 343 344 344 344 344 345 346 346 346 347 346 347 348 348 349 349 349 349 349 349 349 349 349 348 348 347 346 342 335 333 334 335 337 338 340 342 342 342 342 342 341 340 338 337 336 336 337 338 338 337 335 333 333 331 328 324 322 322 320 319 319 318 319 320 320 322 323 325 327 328
339 339 340 340 339 340 339 339 340 340 342 342 343 343 343 343 344 344 344 344 345 346 346 347 347 347 348 348 349 349 349 349 349 349 350 349 349 349 348 348 348 347 345 339 334 333 335 336 338 339 341 342 342 342 342 342 340 339 339 337 337 337 338 339 339 338 337 337 336 334 331 328 325 322 321 321 320 319 320 320 320 321 323 326 329
337 338 339 340 340 341 340 340 340 340 341 342 342 343 343 343 344 344 344 345 345 346 347 347 347 348 348 349 349 349 349 349 349 349 350 350 349 349 349 349 349 348 347 342 336 334 334 336 338 339 340 341 341 342 341 341 341 340 339 339 338 337 338 339 340 340 339 339 339 338 338 337 332 325 321 322 323 321 320 320 320 320 321 324 327
336 338 338 339 340 341 341 341 341 340 340 342 341 342 343 343 343 344 344 345 345 346 347 347 348 348 348 348 348 349 349 349 349 349 350 350 349 350 349 349 349 348 348 344 338 334 334 336 337 339 340 340 340 341 341 341 341 341 341 340 339 338 338 339 341 341 341 340 340 340 340 341 339 333 325 321 322 322 321 320 320 320 320 321 324
334 335 337 339 339 340 341 341 342 341 341 341 342 342 343 343 343 344 345 345 346 346 347 348 348 348 348 348 348 349 349 349 349 349 349 349 350 350 349 349 349 349 348 344 339 335 334 335 337 338 339 339 339 340 341 341 340 341 341 341 340 340 339 339 340 341 341 341 341 342 341 341 341 339 333 327 323 321 321 321 320 321 321 321 322
331 333 336 338 338 340 341 341 342 342 342 342 342 342 343 343 343 344 345 345 345 346 347 347 348 348 347 348 348 349 349 349 350 350 349 350 350 350 349 350 350 349 347 344 341 337 335 335 336 337 338 338 339 339 340 340 340 340 340 340 340 340 341 340 340 341 342 342 342 342 343 343 342 341 339 335 329 324 322 321 321 321 321 322 322
329 331 334 336 338 339 340 341 342 342 343 343 342 342 343 343 344 344 344 345 346 346 347 347 348 347 347 348 349 350 350 350 350 350 349 350 350 350 350 350 350 350 347 345 343 339 336 335 335 337 338 338 338 338 339 339 340 339 339 340 339 341 341 342 343 343 343 343 344 344 344 345 344 343 342 340 336 330 325 322 322 322 322 322 323
329 331 333 335 337 339 340 341 342 342 343 343 343 343 343 343 344 344 344 345 346 346 347 347 347 347 347 348 349 350 350 350 349 350 349 350 350 350 350 350 351 350 349 346 344 340 336 334 334 336 337 337 337 337 338 339 339 339 340 340 339 340 342 343 345 346 346 345 345 345 346 346 345 345 342 340 339 335 329 324 323 323 322 322 322
330 330 332 334 336 338 340 340 341 342 343 343 343 344 344 344 344 344 344 345 346 346 346 347 347 347 348 349 349 349 350 350 349 350 349 350 350 350 350 351 351 351 350 348 344 340 336 335 334 335 335 336 336 336 337 338 339 340 340 340 341 341 342 344 346 347 347 347 347 347 347 347 346 345 342 339 338 338 333 327 324 324 323 322 321
330 331 332 334 335 336 338 339 340 342 342 342 343 343 344 344 344 345 345 346 346 346 346 347 347 348 348 349 349 349 350 350 350 350 350 350 350 350 350 350 351 351 350 348 344 339 337 335 334 333 334 334 335 335 336 337 338 339 340 341 342 342 344 346 347 348 348 348 348 348 348 348 347 344 341 338 337 338 337 331 327 327 326 323 320
330 334 334 335 335 336 337 339 339 340 341 342 343 343 344 344 344 345 345 346 346 346 347 347 348 348 349 349 350 350 350 350 350 351 351 350 350 351 351 350 351 351 351 348 344 340 337 335 334 333 333 333 334 334 335 336 337 338 340 342 343 343 345 347 348 348 348 348 348 349 348 348 347 345 342 340 338 339 339 335 331 330 328 325 321
335 338 338 338 337 336 337 339 339 340 341 342 342 343 343 344 345 346 346 346 346 346 347 348 348 349 350 349 350 350 350 351 352 352 352 351 351 352 351 351 351 352 352 350 345 341 338 335 334 333 333 333 333 333 334 335 335 337 340 342 344 345 346 347 348 349 349 349 350 350 349 348 347 346 344 342 340 340 339 337 333 332 331 328 324
340 341 341 339 338 337 339 340 340 341 341 341 342 343 344 345 345 346 346 346 347 347 348 348 348 349 350 350 350 351 352 352 353 353 353 352 352 352 352 352 352 352 352 352 349 345 341 337 335 334 333 332 332 333 333 334 335 337 341 343 344 346 346 347 349 350 349 349 349 350 350 349 348 348 345 342 341 340 339 336 333 333 333 329 324
342 343 343 342 339 338 339 341 341 341 341 342 342 342 344 345 345 346 347 347 347 348 348 348 348 349 350 350 351 352 352 353 353 354 353 353 353 353 353 353 353 353 353 354 353 351 347 343 339 336 333 333 332 332 333 333 335 338 342 344 345 345 346 347 349 349 348 348 349 351 351 350 349 348 345 343 341 339 338 335 332 333 333 329 325
343 343 343 342 342 341 340 341 341 342 342 343 343 343 343 344 345 346 346 347 348 348 348 348 349 349 350 351 351 352 353 353 353 353 353 353 353 354 354 354 353 353 354 354 354 354 352 349 344 339 335 334 333 333 333 333 336 340 342 344 345 346 347 349 350 350 349 350 351 351 351 350 349 348 345 343 342 340 338 334 332 333 333 329 326
344 344 343 342 343 344 343 343 342 342 343 343 343 343 344 344 346 347 347 347 347 347 347 348 348 349 350 350 351 352 353 354 354 354 353 354 354 354 354 354 353 354 354 354 355 355 354 353 350 345 341 338 335 334 333 335 338 341 343 344 346 348 349 349 351 351 351 352 352 352 352 350 349 348 346 343 342 341 337 332 330 331 329 327 327
343 343 342 341 341 342 345 346 345 345 345 345 344 345 344 345 346 347 347 347 346 346 347 347 348 350 351 351 352 352 352 353 353 353 353 354 354 355 355 354 354 354 354 355 355 355 355 355 354 351 349 344 341 338 336 337 341 342 343 345 348 350 350 351 351 352 352 353 353 353 351 350 349 348 345 343 342 338 334 332 329 327 327 328 330
344 343 343 342 341 341 343 344 345 346 346 347 347 347 346 346 346 346 347 346 346 347 348 349 350 351 351 351 351 352 352 351 350 351 352 353 354 354 354 354 354 354 355 355 356 356 356 355 355 354 353 350 346 343 340 341 343 343 344 347 350 351 352 353 354 354 355 354 354 352 350 349 350 348 345 344 340 335 333 331 328 327 329 331 329
347 345 343 342 342 342 341 341 341 343 345 347 349 349 348 348 346 346 347 346 347 348 349 349 350 350 350 351 351 352 352 352 352 352 353 353 353 354 354 355 355 355 355 355 356 356 356 356 356 355 355 353 351 349 346 345 345 346 347 350 351 353 354 355 356 357 356 355 353 351 349 349 349 347 344 343 339 334 331 329 328 330 333 330 326
344 344 345 346 345 344 344 343 343 343 343 345 347 349 351 350 349 349 349 348 349 349 350 350 351 351 351 351 351 351 352 353 353 353 353 353 353 354 355 356 356 357 357 356 357 357 357 357 356 356 355 355 354 353 352 350 349 348 349 351 353 354 356 357 357 357 356 354 352 350 348 348 346 344 343 341 337 332 329 329 331 334 333 329 326
341 343 346 347 345 345 346 346 345 345 344 345 346 349 351 352 352 352 352 352 352 351 352 352 352 352 352 352 352 352 352 353 354 353 354 355 355 355 356 356 357 357 357 357 357 358 357 357 357 357 356 355 354 354 353 353 352 351 351 353 354 356 356 358 357 356 353 352 350 348 347 346 344 342 340 337 333 331 330 331 333 334 332 328 326
342 344 345 344 346 346 346 347 347 346 346 346 347 350 352 354 355 354 354 354 354 354 354 354 354 354 354 353 354 353 353 353 353 353 354 354 355 355 356 357 358 359 358 358 358 358 357 357 357 357 356 354 353 354 354 354 353 352 353 354 356 357 358 357 356 354 351 350 348 346 345 344 341 338 335 333 332 332 332 332 332 331 329 326 326
336 338 338 338 342 345 345 347 348 347 347 347 347 348 350 351 352 353 354 354 355 356 357 356 356 357 356 355 355 355 355 354 354 354 354 354 355 356 356 357 358 359 359 359 358 358 358 358 357 357 357 355 354 353 354 354 354 354 355 356 357 358 358 357 354 352 350 348 346 344 344 342 338 334 331 331 333 333 333 332 331 329 327 327 329
336 335 333 332 333 334 335 338 342 344 346 347 347 347 347 347 348 348 348 349 351 353 355 357 358 359 359 358 357 356 356 356 355 355 356 355 357 357 357 358 358 359 359 359 359 359 358 358 358 357 357 356 355 354 354 354 354 355 356 357 358 357 356 354 352 350 348 347 345 344 342 338 333 331 330 331 334 334 334 332 330 329 329 330 331
345 345 343 341 340 339 338 337 338 340 342 345 347 348 347 347 346 345 345 345 346 349 352 356 358 359 360 360 359 358 358 357 356 356 356 356 357 357 358 358 358 358 358 359 359 359 358 358 358 358 357 357 356 356 355 353 354 356 358 359 357 356 354 353 351 349 347 346 345 342 339 334 330 329 329 331 333 333 331 330 329 330 331 332 331
345 346 346 346 345 345 345 345 344 344 344 345 347 347 347 347 346 346 345 345 346 347 350 353 356 359 360 361 361 361 359 359 358 357 357 357 357 357 357 358 358 358 358 358 358 359 359 358 358 358 358 357 357 356 355 354 354 357 359 359 357 356 355 353 350 349 347 345 343 340 338 334 330 328 328 329 330 329 328 329 331 331 331 330 328
342 343 344 345 344 344 345 345 346 346 346 345 345 345 346 345 345 344 344 344 344 345 346 348 351 353 356 359 361 362 362 361 360 359 358 358 358 357 358 358 358 358 358 358 358 357 358 358 359 358 358 358 357 355 354 356 358 359 359 358 357 355 353 350 348 347 346 344 342 340 337 334 330 328 328 328 327 328 330 331 331 330 328 327 326
341 342 342 342 343 343 344 344 344 344 344 343 343 343 342 342 342 342 342 342 342 343 343 344 345 347 350 354 357 360 361 361 361 359 358 358 358 358 358 358 358 358 358 358 358 358 358 358 358 358 359 358 357 356 356 357 359 359 359 357 352 349 347 346 345 345 343 342 341 339 336 332 330 329 328 327 328 330 331 330 329 328 327 325 324
Wind_Speed
42 40 42 42 41 39 37 37 36 35 35 34 34 34 34 34 34 34 33 32 32 32 32 32 32 31 30 30 29 28 27 26 25 24 23 22 22 21 20 20 18 16 15 14 13 13 12 12 12 12 12 12 13 13 14 15 14 13 11 10 11 13 13 13 12 11 10 9 10 10 10 10 8 6 5 6 6 5 4 5 5 4 3 2 2
35 37 40 41 42 41 39 38 37 37 36 35 35 34 34 34 35 34 34 34 34 34 33 33 33 32 31 30 29 28 27 27 26 25 24 23 23 22 22 21 19 17 16 15 14 13 13 13 13 13 13 13 13 14 14 15 15 13 11 11 12 13 14 14 12 10 9 8 8 9 10 11 9 7 6 7 6 5 5 4 4 3 2 2 3
35 38 41 42 43 42 42 41 39 38 36 36 35 35 35 35 36 35 35 35 35 35 35 34 33 31 31 30 28 28 27 27 26 25 24 24 23 23 23 22 20 18 17 16 15 14 14 14 14 13 13 14 14 15 15 15 15 13 12 12 13 14 14 13 11 10 8 7 6 7 8 9 9 7 7 8 7 5 4 3 2 1 2 2 3
38 40 41 42 43 44 44 43 42 39 38 37 36 36 36 36 36 37 36 37 36 36 36 35 33 31 31 30 28 27 27 26 27 26 26 25 24 24 23 22 21 20 18 17 17 16 15 14 14 14 14 14 15 16 16 16 15 13 12 13 13 14 13 12 10 10 9 7 5 5 6 7 7 7 9 9 8 6 4 3 2 1 2 2 2
41 41 43 44 45 46 46 45 43 41 40 39 38 37 37 37 37 37 37 37 37 37 36 35 34 33 32 32 30 29 29 29 29 29 29 27 26 25 24 22 21 20 19 18 18 17 16 15 14 14 14 15 16 16 16 16 15 13 13 13 13 12 11 11 10 9 10 9 6 5 5 5 6 7 9 9 9 9 7 6 4 2 0 0 2
41 42 44 46 46 46 46 46 45 43 42 41 40 39 38 38 37 36 37 38 38 37 37 36 36 35 35 35 34 34 33 33 32 31 30 29 27 26 24 22 21 20 20 19 19 18 17 16 15 15 15 16 17 17 17 16 15 13 13 13 13 11 10 10 11 10 10 10 9 7 6 5 5 7 8 8 9 10 9 8 6 4 3 2 3
40 41 43 45 47 47 47 47 47 45 43 41 40 40 40 39 38 37 37 37 38 38 38 37 37 37 37 36 36 35 35 34 33 31 30 28 27 25 24 22 21 20 20 20 20 19 18 17 17 16 16 16 17 18 17 15 14 13 13 13 12 11 10 11 11 11 11 11 10 10 9 7 5 6 8 8 8 11 11 10 8 6 5 4 4
42 42 43 45 48 50 50 49 48 45 43 42 42 41 41 40 39 38 38 37 37 37 37 38 39 39 38 37 37 36 36 34 32 31 30 28 27 25 24 23 22 21 21 21 20 20 19 19 18 17 17 17 18 18 17 15 14 13 13 13 12 10 10 11 12 12 11 10 10 10 10 9 7 6 7 8 7 11 12 11 9 8 8 7 6
43 44 45 47 49 52 52 51 48 46 45 44 43 42 42 41 41 40 39 39 38 37 37 37 38 39 39 39 38 38 37 35 34 33 31 29 28 26 25 24 23 22 22 22 21 21 21 20 19 19 18 18 18 18 16 15 14 13 13 13 11 10 10 11 13 13 12 11 10 10 11 10 8 6 8 9 8 8 11 11 10 10 10 8 6
43 44 46 48 50 52 53 52 50 48 48 46 44 43 43 42 42 42 41 40 40 39 38 37 37 38 40 40 40 39 38 37 35 35 33 31 30 28 27 26 25 24 23 23 22 22 22 21 21 20 19 19 19 18 16 15 14 13 12 12 10 9 10 12 13 13 13 12 11 11 11 10 9 8 10 11 10 9 9 10 11 11 10 8 6
44 45 46 47 49 50 51 52 52 51 50 50 48 47 46 45 44 44 42 42 41 41 39 38 37 38 39 40 40 40 39 39 38 36 35 34 32 30 29 27 26 25 24 24 23 23 23 23 22 21 20 20 19 18 17 15 14 13 12 12 11 9 10 11 13 14 13 13 13 12 11 11 10 10 10 11 11 11 11 11 11 11 10 8 7
44 45 46 46 47 48 49 50 52 51 51 52 51 50 49 48 47 46 45 44 43 43 42 40 39 39 38 38 39 39 40 40 39 37 36 35 34 32 30 29 28 27 26 25 25 24 24 24 23 22 21 20 19 18 17 16 15 14 13 13 12 11 11 11 13 14 13 13 12 11 10 10 11 11 10 9 10 11 12 11 10 10 9 8 8
45 46 47 47 47 49 50 52 52 51 51 52 52 51 51 50 50 49 48 47 46 45 45 43 42 41 39 38 37 37 39 40 40 38 37 35 34 33 32 31 30 29 28 27 26 25 24 25 24 23 22 20 19 18 17 16 16 15 14 14 13 12 12 12 12 13 13 13 12 11 10 10 10 11 11 10 9 9 11 11 9 9 8 7 7
48 48 48 49 51 52 52 53 54 53 53 53 52 52 52 51 51 51 50 48 48 48 47 46 45 43 41 39 37 36 37 39 39 39 37 35 34 34 34 33 32 31 29 27 26 25 25 25 25 24 23 21 19 18 18 17 17 16 15 15 14 13 13 14 13 12 13 14 13 13 12 11 11 12 12 11 10 9 10 10 9 8 7 7 7
47 48 49 51 53 54 54 54 54 55 54 53 53 53 53 52 52 53 51 50 50 49 49 48 47 45 43 41 39 37 36 37 38 37 36 34 33 33 33 33 33 31 30 28 27 26 26 26 26 25 24 22 19 19 19 18 18 17 16 15 14 14 15 15 15 14 14 14 14 14 14 13 12 13 13 12 12 10 10 10 9 8 7 7 7
46 48 50 52 53 54 54 55 55 56 55 54 55 54 54 54 53 53 52 51 51 50 50 49 48 46 45 43 41 39 38 37 37 36 35 34 33 32 32 32 32 31 30 29 28 27 26 26 27 26 24 22 20 20 20 20 19 18 17 16 15 15 16 16 16 15 15 15 15 15 15 14 14 14 14 13 13 13 12 11 11 10 9 8 8
47 50 53 54 54 54 54 55 55 55 55 56 56 56 56 55 54 54 53 53 52 52 51 50 49 48 47 45 44 42 40 39 37 35 34 33 33 32 32 31 31 32 31 30 29 28 27 27 27 27 25 22 20 20 21 21 21 20 18 17 16 15 16 16 16 16 15 15 16 16 16 15 15 16 16 15 15 14 14 14 14 13 11 10 9
48 51 53 53 53 54 55 56 56 56 57 57 57 57 56 56 55 54 54 53 53 52 52 51 50 49 48 47 46 44 42 40 38 36 34 33 34 33 32 32 32 32 32 31 29 29 28 28 28 27 25 23 21 21 22 22 22 22 20 19 17 16 17 17 16 16 16 16 17 17 16 16 16 17 18 17 17 16 15 15 15 14 13 12 11
44 48 50 50 52 55 56 57 57 57 57 57 57 57 56 56 56 56 55 53 52 52 51 51 50 50 49 48 47 45 44 42 40 38 36 35 34 33 32 33 32 32 32 31 30 29 29 28 28 28 26 24 22 22 23 23 24 24 22 21 19 18 18 17 17 17 17 17 17 17 17 17 17 18 18 19 18 18 17 16 16 15 14 14 13
43 48 50 51 53 56 58 58 58 57 57 57 56 55 56 56 56 56 56 54 53 53 52 52 51 50 50 49 48 47 45 44 42 40 39 37 35 33 33 32 32 33 33 32 31 30 29 29 29 28 27 26 24 23 24 25 25 25 24 23 21 20 20 19 18 17 18 18 18 18 18 18 18 18 19 19 19 20 19 18 17 16 15 14 14
44 47 50 53 55 55 57 59 58 57 56 56 54 54 55 55 55 56 56 55 55 55 54 53 52 51 51 50 50 48 47 45 44 42 41 39 37 35 33 32 32 33 34 33 32 31 30 30 30 30 29 28 26 24 25 26 26 26 26 25 24 23 22 21 19 19 19 19 19 19 19 18 19 19 20 20 20 20 20 20 19 18 17 17 17
43 46 49 51 53 54 55 56 57 55 54 53 53 53 53 54 55 55 55 55 56 56 55 54 53 52 52 51 50 49 48 47 45 44 43 41 39 36 34 33 33 33 34 34 33 32 32 32 31 31 30 29 28 26 26 27 28 28 27 27 26 25 24 23 22 21 21 21 21 20 20 19 20 20 21 21 21 21 21 21 20 20 19 19 19
42 43 45 46 50 53 52 53 54 54 54 53 52 52 53 54 55 55 55 56 56 56 55 54 54 53 52 51 50 49 48 48 47 46 45 43 40 38 36 35 34 33 34 35 35 34 33 33 33 32 31 31 30 28 28 28 28 29 29 28 28 27 26 25 24 23 23 22 22 21 21 21 21 21 22 22 22 22 21 21 20 20 19 18 18
38 37 39 40 44 47 47 49 52 54 54 53 52 53 54 54 54 54 55 56 56 56 55 55 54 54 52 52 51 50 49 49 48 47 46 44 41 39 37 36 35 34 34 35 35 35 35 35 35 34 33 33 32 30 30 30 29 30 30 29 29 28 27 27 26 25 24 24 23 23 22 22 23 23 23 22 22 22 21 20 20 20 19 18 17
35 36 37 38 40 44 46 48 50 53 54 53 54 54 54 55 55 55 56 56 55 55 55 55 55 54 53 53 52 51 51 50 49 47 46 44 42 40 38 37 36 35 35 36 36 37 36 36 36 35 35 34 34 32 32 31 30 30 30 30 30 29 29 28 27 27 26 26 25 24 23 23 24 24 25 24 22 22 21 20 20 20 20 19 18
34 37 39 39 40 44 47 49 50 51 53 53 54 55 55 55 55 56 56 55 55 55 55 55 55 54 53 53 52 52 51 50 49 47 46 44 43 41 40 38 37 36 36 37 37 38 38 38 37 36 35 35 35 34 34 32 31 30 30 30 30 30 29 29 29 28 28 27 26 26 25 24 24 25 25 25 23 23 22 21 20 20 20 20 20
30 34 37 39 39 43 47 49 50 51 52 53 54 55 55 55 56 56 55 54 54 54 55 55 54 54 54 54 53 53 52 51 49 47 45 44 43 42 41 39 37 37 37 38 39 39 39 38 38 37 36 36 35 36 35 33 32 31 31 30 30 30 30 29 30 30 29 28 27 26 26 26 26 25 25 25 24 24 23 22 21 20 20 20 21
27 31 34 37 39 43 46 48 50 50 51 52 54 55 55 56 56 55 54 54 54 54 54 54 54 54 54 54 53 53 51 50 48 46 45 44 43 43 41 39 38 38 38 39 39 40 39 39 39 38 37 37 36 37 36 35 33 32 31 30 29 29 29 30 31 31 30 30 28 27 27 27 27 26 25 25 25 24 24 24 23 22 21 21 21
27 29 32 35 38 42 45 48 49 49 50 51 52 53 54 54 55 54 54 53 53 53 54 54 55 55 55 54 53 53 52 50 49 47 45 44 44 42 41 40 39 39 39 39 40 40 40 40 40 39 39 38 38 38 37 35 33 32 31 30 29 29 30 30 31 31 31 31 29 29 29 28 27 27 26 26 25 24 24 24 24 23 22 21 20
23 27 29 32 36 40 43 46 48 48 49 51 51 52 54 54 54 54 54 53 53 53 53 54 55 55 54 53 53 53 52 51 50 48 46 45 44 43 41 40 40 40 40 40 40 40 41 42 41 40 40 40 40 39 37 35 33 32 31 30 29 29 30 30 31 31 31 30 29 30 30 30 30 29 28 27 26 25 24 24 24 24 23 21 20
22 25 27 30 33 37 41 44 46 48 49 50 51 52 53 53 53 53 54 53 53 53 53 54 55 54 53 53 53 53 53 52 51 49 47 46 45 43 42 41 41 41 41 41 41 42 42 43 43 42 41 41 41 39 36 34 33 32 31 29 29 29 29 30 30 30 29 28 28 29 30 31 34 33 29 27 26 24 24 23 23 23 23 22 20
22 24 25 27 31 36 40 42 45 47 48 49 49 50 51 52 52 53 53 52 52 53 54 54 54 53 53 53 53 53 53 52 51 49 48 46 46 44 43 42 42 42 42 43 43 43 43 44 44 43 43 43 42 39 36 34 33 32 30 29 28 28 29 29 29 27 26 26 26 27 28 30 35 35 30 27 27 24 22 22 23 23 23 22 21
23 24 25 25 28 33 38 41 43 45 46 46 47 48 49 50 51 52 51 51 52 52 53 54 54 53 53 53 53 53 53 53 52 50 49 48 47 46 45 44 44 43 43 44 44 44 44 45 45 45 45 44 43 40 37 35 34 31 30 29 28 28 28 29 27 24 23 23 25 28 29 30 35 36 29 25 26 25 21 20 21 22 22 23 22
24 25 26 25 25 29 34 38 41 42 43 44 46 47 46 47 48 49 50 51 52 52 53 54 53 53 53 52 52 53 53 53 52 51 50 50 49 48 47 45 44 44 45 46 46 45 45 45 46 45 45 45 43 40 38 37 34 32 30 29 27 28 29 27 25 23 23 24 28 30 28 28 32 33 28 24 23 23 22 20 20 21 22 23 24
21 21 22 22 21 25 30 34 37 39 40 42 44 44 45 46 47 48 49 50 50 52 52 53 53 52 52 52 52 53 53 53 52 51 51 51 51 50 49 47 47 47 47 46 46 46 46 46 46 45 46 46 44 41 39 37 35 33 31 29 28 29 28 26 26 27 26 27 30 29 27 27 29 28 26 22 18 18 20 20 18 19 21 22 23
15 15 16 16 17 21 25 29 32 35 37 39 41 42 44 45 46 46 47 47 48 50 51 51 51 52 52 52 52 52 52 52 51 51 51 51 51 51 50 49 48 48 48 48 47 47 47 47 46 46 46 46 44 42 40 38 35 34 32 30 29 28 25 25 28 30 28 28 29 27 26 27 27 26 24 18 14 15 18 17 16 17 18 21 21
8 9 10 11 13 17 21 24 28 30 32 35 37 39 40 41 43 44 44 45 47 48 48 49 50 51 51 51 51 51 51 51 51 51 51 51 51 51 50 49 49 49 50 50 50 49 48 48 47 47 47 46 44 42 40 38 36 36 34 31 29 26 24 26 29 30 29 28 26 25 25 25 25 25 21 14 11 13 16 15 15 16 18 19 20
1 3 5 6 9 12 16 20 24 26 28 30 32 35 36 38 41 42 42 43 46 47 46 47 49 50 50 50 50 50 51 51 51 51 51 50 50 50 50 49 49 49 50 50 50 49 49 49 49 48 47 46 44 42 40 38 37 37 35 31 27 25 25 27 29 29 28 27 25 24 23 23 23 21 17 13 12 14 15 15 15 16 18 19 18
9 7 5 2 1 5 9 13 16 19 21 22 25 28 31 34 37 39 40 43 45 45 45 45 46 47 48 48 48 49 49 50 51 51 50 49 49 49 49 48 48 49 49 49 49 50 51 51 50 50 48 47 45 42 40 39 39 38 34 30 27 27 28 28 28 28 27 25 24 22 21 21 20 18 15 13 13 14 16 15 14 16 18 17 15
14 14 12 10 7 4 4 7 9 10 11 12 15 18 23 28 32 36 39 42 43 43 43 43 44 44 46 47 47 48 49 49 49 48 48 48 49 49 49 48 47 48 48 48 49 50 51 52 52 51 50 48 46 44 42 41 40 37 33 29 27 28 28 28 27 26 24 24 22 20 20 21 19 17 15 13 12 14 15 15 15 17 17 14 11
16 16 16 16 14 12 9 6 4 3 5 7 9 12 16 21 27 33 36 38 40 41 41 41 42 43 44 45 47 48 49 48 46 46 47 47 48 49 49 49 48 47 47 48 48 50 51 52 52 51 50 50 48 45 44 42 40 37 32 29 28 27 27 26 24 23 23 22 21 19 20 20 19 18 17 14 12 14 15 15 16 17 14 11 11
14 14 14 14 14 14 14 12 10 7 3 3 6 9 11 16 22 26 28 31 34 37 38 39 40 42 43 45 46 48 49 49 47 48 48 48 47 48 49 50 50 49 48 47 48 49 50 51 51 51 51 50 48 47 46 43 40 36 32 29 27 26 25 24 23 23 22 20 18 18 18 17 16 16 16 14 14 15 16 17 17 16 13 12 13
11 12 13 13 12 12 12 12 11 9 7 4 2 4 8 13 18 21 23 27 30 32 34 36 38 40 42 44 45 46 48 49 48 49 50 49 48 49 50 52 53 53 51 49 49 49 50 50 50 50 50 49 48 48 47 44 39 34 30 28 26 24 24 24 23 22 21 18 17 17 16 14 13 13 14 15 16 16 17 18 17 15 14 15 16
8 9 10 11 10 10 10 9 9 8 7 6 4 1 4 8 13 16 20 23 26 28 31 33 36 38 40 42 43 45 46 47 47 48 50 50 50 50 51 53 55 55 55 53 52 51 50 50 50 50 50 49 48 48 46 42 37 32 29 26 26 26 26 24 22 20 18 17 17 16 14 13 12 13 15 16 16 17 18 17 16 15 17 18 18
6 6 6 6 7 8 7 7 6 6 5 5 5 3 1 4 8 11 14 16 19 23 27 30 32 35 37 39 41 44 45 46 46 48 49 51 53 53 53 54 55 56 56 56 54 52 51 51 51 52 50 48 48 48 45 41 36 32 28 26 27 27 26 23 21 20 18 17 16 16 14 14 14 15 17 18 17 17 17 16 16 17 18 19 19
4 3 3 4 3 3 3 3 3 2 1 2 4 4 4 4 5 7 9 11 13 16 20 24 27 30 33 36 39 42 44 46 47 49 50 52 54 54 55 55 54 54 54 54 54 53 52 52 52 52 51 50 48 47 44 40 36 32 30 29 28 27 24 22 21 20 18 17 17 17 17 17 17 17 18 18 18 17 17 17 17 18 19 19 17
4 2 0 1 2 3 3 3 4 4 4 5 6 7 7 8 8 9 10 11 12 13 16 19 22 25 28 32 36 40 42 45 47 49 51 52 53 53 54 55 54 54 55 56 56 56 55 55 54 53 53 52 50 47 43 40 37 34 32 31 30 27 25 25 24 22 21 20 20 19 18 18 18 19 19 18 18 17 18 18 18 18 17 15 14
6 4 2 0 1 2 4 5 7 8 9 9 9 10 10 11 12 14 14 15 15 15 16 17 19 22 24 28 33 38 41 44 47 49 51 53 53 54 55 57 58 59 60 59 58 57 57 56 55 54 53 52 51 48 45 41 38 37 36 34 32 30 29 27 26 26 24 23 22 21 20 21 21 21 21 20 18 18 18 17 17 16 15 14 14
9 7 6 4 3 2 1 3 5 7 9 10 11 12 13 14 15 17 17 18 18 18 17 17 16 18 20 23 28 32 37 41 45 48 50 52 54 55 57 59 61 62 63 62 60 59 59 58 56 54 54 53 51 48 45 41 38 37 37 35 32 31 29 27 27 27 26 25 24 23 22 22 22 22 21 20 18 18 18 18 17 16 16 15 14
13 11 9 8 8 7 5 4 4 4 5 6 8 11 12 14 16 18 19 20 20 21 21 20 19 18 18 20 23 27 31 36 40 45 48 51 53 54 57 60 62 62 64 64 62 60 59 58 57 56 53 50 48 44 41 39 38 37 35 33 29 27 26 26 26 27 26 25 25 25 24 23 23 22 21 19 19 19 18 17 17 16 15 15 14
18 16 15 14 13 11 10 9 8 8 7 5 5 5 6 8 9 11 12 14 16 18 20 21 21 20 19 19 20 23 26 30 34 39 43 47 52 55 57 60 62 64 65 66 65 63 62 60 58 55 52 48 42 37 37 38 39 38 35 31 26 23 23 24 26 27 27 26 25 25 25 24 22 21 20 19 20 19 17 16 15 15 15 15 15
Wind_Direction
208 206 208 209 209 208 207 207 208 209 210 211 211 212 213 214 215 214 213 212 212 213 213 213 214 213 213 214 214 215 215 216 218 219 218 219 220 221 223 223 224 227 230 235 240 246 251 254 256 260 266 271 272 270 271 275 282 285 275 263 260 257 257 264 275 283 282 271 260 251 251 254 255 265 246 198 173 147 109 93 96 83 75 65 21
207 208 209 210 211 210 210 210 210 211 211 212 213 213 214 215 217 218 216 215 214 215 215 216 216 215 215 215 215 216 217 219 220 220 220 221 221 222 223 224 226 228 231 236 240 246 250 252 255 259 266 271 272 271 270 275 282 282 272 263 263 262 264 272 277 279 275 267 258 245 243 246 246 249 226 196 187 167 135 114 101 66 26 24 12
206 209 209 210 212 212 212 213 214 213 212 214 215 215 216 217 219 220 219 219 218 217 218 218 219 218 219 220 219 219 221 223 224 223 222 223 224 225 225 226 227 229 232 236 240 243 246 251 256 261 266 270 272 272 272 277 282 281 271 264 265 265 269 274 276 274 267 260 256 243 235 234 232 231 215 201 198 189 165 144 125 34 358 8 2
206 209 209 210 211 212 213 214 215 215 215 216 216 216 217 218 219 220 221 221 221 220 220 221 221 221 222 223 224 224 225 226 228 227 223 223 224 225 226 225 226 229 231 236 240 241 245 250 257 263 267 270 272 272 274 278 282 281 272 268 270 270 272 274 272 264 253 251 253 240 227 219 217 215 208 205 207 210 207 194 203 294 340 3 10
206 207 209 209 210 212 214 215 215 216 215 215 214 214 215 216 218 219 221 222 223 222 222 222 222 223 223 224 224 225 227 228 229 228 225 222 223 223 224 225 226 229 231 235 238 240 243 249 256 263 267 270 270 272 276 277 279 279 271 270 274 276 275 270 265 253 240 243 247 231 217 213 215 209 204 213 221 226 225 207 216 248 222 72 60
209 209 209 209 210 212 214 214 215 216 215 215 214 214 214 215 216 217 220 222 224 224 223 223 223 223 223 223 223 223 224 226 227 228 227 225 224 224 225 226 228 231 233 235 237 239 241 246 253 260 264 267 270 273 275 276 278 277 270 272 277 278 274 260 251 244 235 240 246 238 224 216 224 217 213 225 225 221 215 201 208 220 194 159 114
212 213 212 211 210 211 213 214 215 216 215 215 215 215 215 217 217 218 220 222 223 225 224 224 224 224 225 225 225 225 227 228 228 230 231 231 231 230 230 230 231 233 235 237 237 239 239 242 249 256 261 265 268 271 273 275 278 276 271 274 277 273 267 250 235 234 234 238 246 244 236 229 234 231 228 232 212 201 198 196 205 209 194 173 146
212 214 213 213 212 212 213 215 216 215 213 213 215 215 216 218 220 221 222 223 224 225 225 225 225 226 226 227 228 229 231 232 232 233 234 235 235 235 234 233 233 234 236 238 239 238 238 240 246 251 257 261 266 268 270 274 274 271 270 272 271 263 255 239 225 225 232 240 245 242 241 241 243 240 234 234 214 195 195 201 209 206 195 184 171
214 214 215 215 215 214 216 216 216 215 213 213 213 214 216 218 221 223 224 225 226 226 226 226 226 227 228 228 229 230 232 234 235 236 236 237 238 237 235 234 234 235 237 239 240 239 239 241 246 250 254 259 264 266 267 269 267 264 265 268 267 259 248 235 224 225 231 240 243 238 241 246 245 230 220 223 218 205 207 213 215 209 204 201 191
217 217 218 218 218 217 218 218 218 217 216 215 215 215 217 219 221 223 224 225 226 227 227 226 227 227 228 229 231 231 232 233 234 235 236 238 238 238 236 234 234 234 236 239 241 241 242 244 247 249 252 255 260 263 262 263 262 260 261 263 259 252 246 238 231 232 236 240 240 237 239 245 243 229 218 217 216 219 229 230 224 219 220 226 215
219 219 220 221 221 221 219 219 220 220 219 219 219 219 219 221 222 223 224 225 226 227 227 228 228 228 229 229 231 232 233 233 233 233 234 236 237 237 236 236 235 236 237 239 242 244 244 245 247 249 249 251 255 258 257 258 257 256 257 257 252 245 243 239 236 236 237 237 238 239 240 243 244 238 230 227 228 234 240 239 237 231 231 233 226
219 219 220 221 221 221 220 221 221 221 220 220 221 222 222 223 223 224 226 226 227 227 228 228 229 229 230 230 231 232 232 234 234 233 233 234 235 236 236 236 237 237 238 240 242 244 245 245 246 246 245 247 251 253 253 252 251 251 251 251 246 241 240 238 234 232 233 234 236 241 242 242 243 241 236 235 238 242 243 245 247 239 232 228 225
218 218 219 219 220 221 220 221 221 221 221 221 222 223 223 225 225 226 227 227 227 228 228 229 229 230 231 232 232 232 232 234 235 236 236 236 236 236 236 237 237 238 238 240 241 242 243 243 244 245 244 246 249 250 248 246 245 246 248 249 243 239 241 241 237 234 234 235 237 242 245 243 243 240 239 238 236 236 237 241 243 236 232 231 229
217 218 218 218 219 221 221 221 221 221 222 223 223 223 224 225 226 227 229 229 229 229 229 230 229 230 231 233 234 233 233 233 234 236 237 237 236 236 237 238 238 240 240 241 242 243 243 242 243 244 244 246 248 248 245 242 242 243 246 248 243 238 240 244 243 241 240 239 238 240 244 244 244 244 245 245 242 236 233 233 232 230 233 241 244
216 217 218 219 220 220 221 221 221 221 222 223 223 224 225 226 227 228 229 230 230 230 231 231 231 230 230 232 234 235 235 235 235 236 237 237 235 235 237 238 239 241 242 243 244 245 244 241 242 243 243 245 247 246 244 241 240 241 243 245 242 237 238 242 243 244 244 244 242 242 243 242 242 245 247 248 247 241 235 232 229 230 237 247 254
214 217 218 220 221 221 221 221 222 222 222 222 224 224 225 226 228 229 230 231 231 231 231 232 233 233 232 231 232 234 235 236 236 237 237 236 235 235 236 238 239 240 242 244 244 245 244 241 240 242 242 244 246 245 243 241 239 240 241 242 239 235 236 239 242 244 246 248 248 245 244 242 242 246 250 250 248 244 241 239 236 237 244 253 259
214 216 218 220 220 221 222 222 222 222 221 222 224 225 226 227 228 230 231 231 231 232 232 233 233 233 233 232 232 233 234 235 237 237 237 236 235 235 236 238 239 240 241 242 242 243 243 241 240 241 242 245 247 245 242 240 240 239 240 242 241 238 238 240 242 245 247 250 251 248 246 245 243 248 252 252 249 246 245 244 241 242 248 256 261
216 217 219 219 219 220 222 223 223 223 224 225 226 227 227 227 229 230 230 230 231 232 233 233 233 234 234 234 233 233 234 235 237 238 239 238 237 236 235 236 238 238 239 240 241 242 242 241 240 240 242 245 247 246 242 240 240 240 239 240 241 240 241 241 241 245 248 249 251 250 248 247 246 248 252 254 252 248 246 245 243 245 252 259 262
216 218 219 219 219 220 222 223 224 224 225 227 227 227 226 227 229 230 231 232 233 232 233 233 234 235 236 236 236 235 235 235 236 237 238 239 239 238 236 236 237 237 238 238 238 239 241 241 241 241 243 245 246 246 243 242 241 240 240 239 240 240 241 242 241 243 247 249 250 251 250 250 249 250 252 254 253 250 249 250 249 249 255 260 263
217 217 218 219 220 220 221 223 224 224 225 227 226 224 224 227 228 229 231 232 231 232 233 234 235 236 236 237 237 237 236 236 237 237 238 239 240 240 239 237 237 237 239 238 238 238 240 242 243 244 244 245 246 245 243 243 242 242 241 240 239 240 243 244 243 244 246 248 250 251 252 252 252 253 253 254 255 254 254 255 255 254 256 259 263
219 218 218 219 220 221 221 222 224 225 226 226 224 223 224 225 226 228 230 229 230 231 233 234 235 235 236 236 237 237 237 237 237 238 238 239 240 241 242 241 239 238 239 240 239 238 239 241 243 245 246 247 246 245 244 245 245 244 243 241 241 241 243 245 246 245 245 247 249 252 254 254 254 256 257 257 257 257 258 258 258 257 257 260 265
223 222 220 219 220 222 221 221 222 223 224 223 222 223 223 224 226 227 228 228 230 232 233 234 234 235 236 237 237 238 238 238 238 238 239 239 240 241 243 243 242 239 239 240 240 239 239 240 243 245 246 247 247 245 245 246 247 247 246 244 243 242 243 245 247 247 247 247 250 252 254 255 255 256 258 260 260 260 261 262 262 261 261 263 266
228 226 223 221 221 222 221 220 220 221 222 222 222 222 223 225 227 226 226 229 232 233 233 233 233 235 236 236 236 237 238 238 238 239 239 239 240 241 242 244 244 241 239 239 240 240 240 240 242 243 245 246 246 245 245 246 247 249 249 248 247 247 247 247 249 250 251 251 252 253 255 256 256 256 257 260 261 261 261 264 266 266 265 265 265
232 229 227 223 221 223 222 220 220 220 221 221 221 223 224 226 226 225 228 232 232 231 232 232 233 235 235 235 235 236 237 237 238 238 239 240 240 241 242 243 244 243 241 240 240 240 240 240 241 242 243 244 245 244 245 246 247 250 251 251 251 250 250 250 251 253 255 257 257 256 256 257 258 257 256 257 259 262 264 265 268 269 269 268 266
233 231 230 225 220 221 222 222 221 220 220 220 221 223 224 226 226 227 230 232 231 230 230 231 233 233 233 234 235 235 236 237 238 238 239 240 240 240 241 243 244 244 243 240 239 239 240 240 241 241 242 243 243 244 245 246 247 250 252 253 253 253 252 252 253 255 257 260 262 263 263 261 260 258 257 257 258 261 264 266 268 270 271 270 268
235 233 231 226 220 220 223 223 223 221 220 220 222 223 225 226 228 230 231 231 229 229 229 230 231 232 232 234 235 235 236 236 237 238 239 239 240 240 240 241 243 243 243 241 239 239 239 240 240 241 242 243 243 244 245 245 247 250 251 253 254 254 254 254 254 256 258 260 264 267 268 268 265 262 259 259 259 259 261 263 266 269 270 270 269
243 238 233 227 221 221 223 224 224 223 222 221 222 224 225 227 228 229 230 229 229 229 228 229 230 231 232 234 235 236 236 236 237 238 239 240 240 240 240 240 242 242 242 240 239 238 239 240 240 241 242 242 243 243 244 245 246 248 250 252 254 255 256 256 257 258 259 261 263 267 269 271 271 268 264 261 260 259 259 260 262 265 267 267 267
247 242 235 228 223 223 224 224 224 223 223 223 223 225 226 227 229 229 228 228 228 228 228 228 229 230 232 235 236 236 236 236 237 238 239 240 240 240 240 240 241 241 240 239 238 238 238 239 240 241 241 242 243 243 244 244 245 247 249 251 253 256 257 257 258 259 261 263 265 267 269 271 273 273 271 267 263 260 260 260 259 260 262 263 265
251 246 239 232 228 226 224 224 224 223 223 223 223 224 225 227 228 228 227 229 229 228 228 228 228 231 234 235 235 234 235 235 236 237 238 238 238 239 239 240 240 240 239 238 237 237 238 239 240 240 241 242 242 243 243 243 244 246 248 251 253 256 258 259 260 260 262 265 267 269 270 272 273 273 274 272 269 265 261 258 257 256 256 259 262
260 254 245 237 232 230 228 226 224 222 223 223 223 225 225 226 227 227 228 229 228 228 228 228 229 233 235 234 233 233 233 234 235 236 237 237 237 237 237 238 238 239 238 237 237 236 236 238 239 239 241 241 242 242 243 243 244 245 247 251 254 257 259 261 262 263 265 268 270 272 273 274 273 272 273 273 272 270 264 258 255 252 250 253 258
268 262 252 243 235 231 228 226 225 224 223 223 224 226 227 227 227 227 229 229 227 228 229 229 232 235 234 232 232 232 232 233 234 235 236 235 235 235 235 236 236 237 237 237 236 235 235 236 237 238 240 241 242 242 243 243 244 244 246 249 253 257 260 262 265 267 269 271 274 275 276 276 274 272 271 271 272 270 265 257 252 249 247 248 252
273 269 260 249 240 233 228 227 228 227 224 224 226 227 227 227 228 229 229 228 227 228 230 232 234 234 231 231 232 232 232 233 233 234 234 234 234 234 234 234 235 235 236 236 235 234 234 235 237 238 239 241 242 243 243 244 243 244 246 248 252 257 260 263 265 268 271 274 274 272 271 273 275 274 273 273 272 270 265 256 251 248 247 246 248
275 274 271 262 251 241 234 231 230 228 227 228 229 228 230 232 232 231 229 227 228 230 232 234 233 231 230 231 231 231 232 233 233 233 233 233 233 234 233 233 233 234 235 235 234 234 234 235 236 237 239 240 242 243 243 244 244 244 245 247 251 256 259 262 263 265 267 264 258 257 260 267 272 275 278 279 273 270 268 259 250 248 247 245 245
274 276 277 275 264 248 240 236 233 233 234 233 231 231 235 235 233 231 228 228 230 231 232 233 232 231 232 231 230 231 232 232 232 231 231 232 233 234 233 233 233 233 234 234 234 233 233 234 235 237 239 241 242 243 243 243 244 244 245 246 249 252 256 258 257 255 250 245 248 255 261 267 271 275 280 280 272 269 269 261 251 248 246 244 243
270 274 277 279 270 251 241 238 236 236 235 233 232 234 234 233 231 230 230 230 231 232 232 232 231 231 231 230 230 231 231 231 230 230 231 232 233 234 235 234 234 234 234 234 234 234 233 234 235 237 239 241 242 242 243 244 244 245 245 245 246 249 252 252 251 248 244 245 254 263 267 269 270 273 277 273 264 265 268 262 255 251 248 244 243
267 273 273 274 266 250 242 240 239 237 234 232 234 234 231 230 230 230 231 232 231 230 230 231 231 232 232 231 230 230 229 229 229 229 231 232 234 235 235 236 236 236 237 236 236 236 235 235 235 236 238 240 241 242 243 243 244 245 244 243 243 245 246 247 250 252 250 251 257 262 267 269 269 271 274 267 252 256 261 257 253 252 249 244 240
271 274 271 267 260 249 242 240 238 237 236 235 235 234 232 231 231 231 230 231 231 230 232 233 234 234 233 232 230 229 229 229 229 230 232 234 234 235 236 236 237 238 238 238 238 238 238 237 237 237 238 239 240 241 242 242 243 243 242 240 241 240 238 241 249 253 253 256 259 261 264 265 265 268 270 259 245 249 250 247 247 247 244 240 237
14 302 280 263 255 248 241 239 239 238 237 236 234 234 235 234 233 232 231 231 232 233 234 235 236 236 234 233 232 231 230 230 231 233 235 235 235 236 236 237 238 239 240 241 241 241 240 240 239 238 238 240 240 240 241 241 242 242 241 240 239 235 232 237 245 249 252 257 259 259 259 257 257 263 263 249 243 246 242 239 241 241 238 235 234
75 62 40 18 254 234 227 230 237 240 239 238 236 235 236 236 235 233 232 233 235 237 238 239 239 238 235 234 233 232 232 232 233 235 237 236 236 236 236 237 239 241 242 243 243 243 243 242 241 241 240 241 241 241 241 242 242 242 241 239 236 233 231 234 240 245 250 255 255 253 251 248 249 256 257 248 242 239 235 233 232 232 232 230 230
79 72 63 62 74 111 168 198 220 233 239 242 242 243 242 240 238 235 234 236 240 243 243 243 240 237 234 235 235 234 234 235 237 239 239 238 237 237 236 237 239 241 242 243 244 245 244 244 243 243 242 242 242 241 241 242 242 242 241 238 233 231 231 233 238 245 250 252 251 247 242 241 244 248 249 242 233 229 231 231 225 223 222 222 230
82 78 74 71 73 78 86 100 134 193 228 237 242 246 246 244 241 238 239 243 245 245 243 240 238 236 236 237 237 237 237 238 240 241 239 238 238 238 238 238 237 238 240 241 243 245 246 246 245 244 244 243 243 242 242 242 242 241 240 237 232 230 231 235 240 244 247 247 244 238 234 235 240 245 245 236 219 215 224 227 220 213 211 221 240
88 83 82 78 74 75 75 75 77 82 109 197 229 240 244 246 246 247 251 254 252 249 247 244 242 241 240 239 239 240 239 239 239 238 237 237 239 239 239 238 236 235 237 238 240 242 243 244 245 245 245 245 245 244 244 243 242 241 239 235 231 228 230 236 240 240 239 240 237 230 229 235 242 243 239 226 209 209 218 218 209 203 210 231 250
95 86 84 82 78 77 73 68 65 65 72 90 150 215 232 246 252 257 260 259 256 255 253 250 248 246 244 243 242 242 241 239 237 237 237 237 238 237 237 237 235 233 233 234 236 237 238 240 242 243 244 245 245 245 245 244 242 241 238 236 231 229 232 237 238 235 232 231 228 225 226 232 235 227 216 208 203 205 210 208 201 204 221 241 254
89 84 85 86 86 82 75 69 62 53 48 49 53 108 217 240 249 254 255 255 254 255 254 253 252 251 249 247 246 244 243 241 240 239 238 238 238 237 237 236 234 232 231 231 232 232 233 235 237 239 241 243 244 244 245 244 242 239 236 233 230 232 236 235 231 228 226 220 217 218 220 221 217 209 202 199 198 199 200 200 204 216 231 246 255
79 76 72 77 88 89 86 84 73 55 39 24 20 20 290 246 247 251 255 255 254 253 251 251 253 253 252 251 248 246 245 244 243 241 240 240 239 236 235 234 232 229 228 229 229 229 229 231 233 235 237 240 241 241 241 241 239 236 232 229 230 233 232 225 220 218 216 211 209 209 209 207 205 200 195 192 191 193 195 199 210 225 238 250 255
86 75 34 27 45 63 84 100 91 74 10 334 328 322 314 289 269 268 268 266 264 261 257 255 254 254 255 254 251 249 248 247 244 241 240 241 238 234 232 232 230 228 228 228 227 227 228 229 230 231 233 235 236 236 235 235 233 229 225 225 227 226 219 211 210 209 206 203 204 206 205 204 200 195 191 188 188 191 197 205 218 234 246 251 249
91 97 72 274 270 280 281 284 291 286 284 290 291 295 299 294 287 283 277 274 274 271 268 265 261 259 258 256 254 253 250 248 245 241 239 238 236 233 232 230 228 228 228 228 227 226 226 225 226 228 230 232 232 230 229 228 224 221 220 219 215 208 203 201 201 200 200 201 203 204 202 200 195 190 186 187 190 196 205 216 228 238 241 236 229
70 65 58 54 234 243 250 260 271 277 284 291 292 291 290 286 283 280 276 276 277 273 271 270 265 261 259 257 256 256 253 250 247 244 241 238 236 234 232 232 232 231 229 227 226 226 225 225 224 224 225 226 227 227 224 219 214 213 213 209 202 199 200 202 202 200 200 200 202 202 200 196 193 190 189 190 196 205 213 222 228 226 219 215 217
59 48 34 20 12 5 303 263 260 265 274 282 286 288 288 286 285 284 282 281 280 278 280 280 274 266 261 258 258 259 257 256 254 250 247 244 242 239 236 235 236 236 233 231 231 230 229 227 225 224 223 223 224 226 223 215 208 207 207 204 203 206 208 208 206 204 202 202 201 201 201 200 196 193 194 197 202 208 213 215 213 210 210 214 221
60 55 46 36 26 17 6 354 335 314 298 289 284 282 282 282 283 284 284 284 282 281 282 284 284 281 273 267 264 261 261 261 260 257 255 252 248 245 242 240 239 239 238 236 236 237 237 233 228 227 228 228 228 227 224 215 206 202 202 204 207 212 212 207 204 202 203 205 205 202 201 201 199 196 197 200 203 206 209 208 206 208 212 216 217
61 57 54 51 48 45 43 40 35 29 24 11 343 318 300 290 286 284 286 286 284 281 279 279 281 284 283 282 278 272 267 264 260 258 258 256 252 250 247 244 242 241 239 237 235 236 238 236 231 228 228 227 227 226 221 212 202 195 194 196 198 199 201 201 200 199 199 201 203 202 199 197 197 198 199 200 201 203 205 205 206 209 210 210 213